{"data":{"norad_id":40374,"intl_designator":"2015-002A","name":"MUOS-3","alt_names":[],"object_type":"PAYLOAD","status":"ACTIVE","operator":null,"country":"US","launch_date":"2015-01-21","launch_site_code":"AFETR","launch_vehicle":null,"mission":null,"orbit_class":"UNKNOWN","rcs_meters":20.8608,"size_class":null,"mass_kg":null,"dimensions":null,"purposes":["comms"],"wikipedia_slug":null,"has_3d_model":false,"image_url":null,"decayed_at":null,"tle_current":{"epoch":"2026-09-19T16:53:51.742176Z","epoch_age_seconds":90660,"freshness":"FRESH","line1":"1 40374U 15002A   26262.70407109 -.00000130  00000+0  00000+0 0  9995","line2":"2 40374   4.7022  43.7997 0058188 178.8761  13.9339  1.00273270 42536","mean_motion":1.0027327,"eccentricity":0.0058188,"inclination_deg":4.7022,"raan_deg":43.7997,"arg_perigee_deg":178.8761,"mean_anomaly_deg":13.9339,"bstar":0,"rev_number":4253,"period_min":1436.0756361092,"perigee_km":35540.832946919,"apogee_km":36031.524386924,"semimajor_km":42164.315666921,"source":"CELESTRAK","updated_at":"2026-09-20T09:00:35.214787Z"}}}